This is the latest recevied weather packets stored in our database for station/object W4WYD-2. If no packets are shown the sender has not sent any weather packets the latest 10 day(s).
| Time | Temp. | Humidity | Pressure | Rain* | Wind** | Luminosity | Snow |
|---|---|---|---|---|---|---|---|
| 1787619768 | 21.11° C | 92% | 1017.3 hPa | 0 mm | - | 0 W/m² | - |
| 1787619463 | 21.67° C | 92% | 1017.4 hPa | 0 mm | - | 0 W/m² | - |
| 1787619158 | 21.67° C | 91% | 1017.5 hPa | 0 mm | - | 0 W/m² | - |
| 1787618852 | 21.67° C | 91% | 1017.8 hPa | 0 mm | - | 0 W/m² | - |
| 1787618549 | 22.22° C | 90% | 1017.7 hPa | 0 mm | - | 1 W/m² | - |
| 1787618246 | 22.22° C | 89% | 1017.7 hPa | 0 mm | - | 2 W/m² | - |
| 1787617942 | 22.22° C | 88% | 1017.7 hPa | 0 mm | - | 3 W/m² | - |
| 1787617641 | 22.78° C | 88% | 1017.5 hPa | 0 mm | - | 5 W/m² | - |
| 1787617336 | 22.78° C | 87% | 1017.4 hPa | 0 mm | - | 7 W/m² | - |
| 1787617029 | 23.33° C | 86% | 1017.3 hPa | 0 mm | - | 9 W/m² | - |
| 1787616725 | 23.33° C | 85% | 1017.1 hPa | 0 mm | - | 11 W/m² | - |
| 1787616423 | 23.89° C | 84% | 1017.4 hPa | 0 mm | - | 14 W/m² | - |
| 1787616122 | 24.44° C | 82% | 1017.1 hPa | 0 mm | - | 17 W/m² | - |
| 1787615821 | 25° C | 78% | 1017.2 hPa | 0 mm | - | 22 W/m² | - |
| 1787615518 | 25° C | 77% | 1017 hPa | 0 mm | - | 30 W/m² | - |
| 1787615213 | 25.56° C | 77% | 1017 hPa | 0 mm | - | 43 W/m² | - |
| 1787614909 | 25.56° C | 76% | 1017 hPa | 0 mm | - | 41 W/m² | - |
| 1787614604 | 25.56° C | 74% | 1017.3 hPa | 0 mm | - | 42 W/m² | - |
| 1787614302 | 25.56° C | 74% | 1017.1 hPa | 0 mm | - | 49 W/m² | - |
| 1787613998 | 25.56° C | 73% | 1017.1 hPa | 0 mm | - | 62 W/m² | - |
| 1787613694 | 26.11° C | 70% | 1017 hPa | 0 mm | - | 48 W/m² | - |
| 1787613394 | 26.67° C | 68% | 1017 hPa | 0 mm | - | 51 W/m² | - |
| 1787613090 | 26.67° C | 69% | 1017.2 hPa | 0 mm | - | 67 W/m² | - |
| 1787612787 | 26.67° C | 64% | 1017.2 hPa | 0 mm | - | 97 W/m² | - |
| 1787612482 | 27.22° C | 64% | 1017.1 hPa | 0 mm | - | 99 W/m² | - |
* Rain latest hour (hover to see other rain measurements)
** Current wind speed in m/s (hover to see current wind gust speed)